Year,Month,Day,Hour,Minute,Value (Times are PST for temperature in C)
2008,07,17,00,00,12.80
2008,07,17,00,01,12.80
2008,07,17,00,02,12.80
2008,07,17,00,03,12.70
2008,07,17,00,04,12.70
2008,07,17,00,05,12.70
2008,07,17,00,06,12.70
2008,07,17,00,07,12.60
2008,07,17,00,08,12.60
2008,07,17,00,09,12.60
2008,07,17,00,10,12.60
2008,07,17,00,11,12.60
2008,07,17,00,12,12.50
2008,07,17,00,13,12.50
2008,07,17,00,14,12.50
2008,07,17,00,15,12.40
2008,07,17,00,16,12.40
2008,07,17,00,17,12.40
2008,07,17,00,18,12.40
2008,07,17,00,19,12.40
2008,07,17,00,20,12.30
2008,07,17,00,21,12.30
2008,07,17,00,22,12.30
2008,07,17,00,23,12.30
2008,07,17,00,24,12.30
2008,07,17,00,25,12.30
2008,07,17,00,26,12.20
2008,07,17,00,27,12.20
2008,07,17,00,28,12.20
2008,07,17,00,29,12.20
2008,07,17,00,30,12.20
2008,07,17,00,31,12.20
2008,07,17,00,32,12.20
2008,07,17,00,33,12.10
2008,07,17,00,34,12.10
2008,07,17,00,35,12.10
2008,07,17,00,36,12.10
2008,07,17,00,37,12.00
2008,07,17,00,38,12.00
2008,07,17,00,39,12.00
2008,07,17,00,40,11.90
2008,07,17,00,41,11.90
2008,07,17,00,42,11.90
2008,07,17,00,43,11.90
2008,07,17,00,44,11.90
2008,07,17,00,45,11.80
2008,07,17,00,46,11.80
2008,07,17,00,47,11.80
2008,07,17,00,48,11.80
2008,07,17,00,49,11.80
2008,07,17,00,50,11.80
2008,07,17,00,51,11.70
2008,07,17,00,52,11.70
2008,07,17,00,53,11.70
2008,07,17,00,54,11.70
2008,07,17,00,55,11.70
2008,07,17,00,56,11.60
2008,07,17,00,57,11.60
2008,07,17,00,58,11.60
2008,07,17,00,59,11.60
2008,07,17,01,00,11.60
2008,07,17,01,01,11.60
2008,07,17,01,02,11.60
2008,07,17,01,03,11.60
2008,07,17,01,04,11.50
2008,07,17,01,05,11.50
2008,07,17,01,06,11.50
2008,07,17,01,07,11.40
2008,07,17,01,08,11.40
2008,07,17,01,09,11.40
2008,07,17,01,10,11.40
2008,07,17,01,11,11.40
2008,07,17,01,12,11.40
2008,07,17,01,13,11.40
2008,07,17,01,14,11.30
2008,07,17,01,15,11.30
2008,07,17,01,16,11.30
2008,07,17,01,17,11.30
2008,07,17,01,18,11.30
2008,07,17,01,19,11.30
2008,07,17,01,20,11.30
2008,07,17,01,21,11.20
2008,07,17,01,22,11.20
2008,07,17,01,23,11.20
2008,07,17,01,24,11.20
2008,07,17,01,25,11.20
2008,07,17,01,26,11.20
2008,07,17,01,27,11.10
2008,07,17,01,28,11.10
2008,07,17,01,29,11.10
2008,07,17,01,30,11.10
2008,07,17,01,31,11.10
2008,07,17,01,32,11.00
2008,07,17,01,33,11.00
2008,07,17,01,34,11.00
2008,07,17,01,35,11.00
2008,07,17,01,36,10.90
2008,07,17,01,37,10.90
2008,07,17,01,38,10.90
2008,07,17,01,39,10.90
2008,07,17,01,40,10.90
2008,07,17,01,41,10.90
2008,07,17,01,42,10.90
2008,07,17,01,43,10.80
2008,07,17,01,44,10.80
2008,07,17,01,45,10.80
2008,07,17,01,46,10.80
2008,07,17,01,47,10.80
2008,07,17,01,48,10.70
2008,07,17,01,49,10.70
2008,07,17,01,50,10.70
2008,07,17,01,51,10.70
2008,07,17,01,52,10.70
2008,07,17,01,53,10.70
2008,07,17,01,54,10.60
2008,07,17,01,55,10.60
2008,07,17,01,56,10.60
2008,07,17,01,57,10.60
2008,07,17,01,58,10.60
2008,07,17,01,59,10.60
2008,07,17,02,00,10.60
2008,07,17,02,01,10.60
2008,07,17,02,02,10.60
2008,07,17,02,03,10.60
2008,07,17,02,04,10.60
2008,07,17,02,05,10.60
2008,07,17,02,06,10.60
2008,07,17,02,07,10.60
2008,07,17,02,08,10.60
2008,07,17,02,09,10.50
2008,07,17,02,10,10.50
2008,07,17,02,11,10.50
2008,07,17,02,12,10.50
2008,07,17,02,13,10.50
2008,07,17,02,14,10.50
2008,07,17,02,15,10.50
2008,07,17,02,16,10.50
2008,07,17,02,17,10.50
2008,07,17,02,18,10.40
2008,07,17,02,19,10.40
2008,07,17,02,20,10.40
2008,07,17,02,21,10.40
2008,07,17,02,22,10.40
2008,07,17,02,23,10.40
2008,07,17,02,24,10.40
2008,07,17,02,25,10.40
2008,07,17,02,26,10.30
2008,07,17,02,27,10.30
2008,07,17,02,28,10.30
2008,07,17,02,29,10.30
2008,07,17,02,30,10.30
2008,07,17,02,31,10.30
2008,07,17,02,32,10.30
2008,07,17,02,33,10.20
2008,07,17,02,34,10.20
2008,07,17,02,35,10.20
2008,07,17,02,36,10.20
2008,07,17,02,37,10.20
2008,07,17,02,38,10.20
2008,07,17,02,39,10.20
2008,07,17,02,40,10.20
2008,07,17,02,41,10.20
2008,07,17,02,42,10.20
2008,07,17,02,43,10.10
2008,07,17,02,44,10.10
2008,07,17,02,45,10.10
2008,07,17,02,46,10.10
2008,07,17,02,47,10.10
2008,07,17,02,48,10.10
2008,07,17,02,49,10.10
2008,07,17,02,50,10.10
2008,07,17,02,51,10.10
2008,07,17,02,52,10.10
2008,07,17,02,53,10.10
2008,07,17,02,54,10.10
2008,07,17,02,55,10.10
2008,07,17,02,56,10.10
2008,07,17,02,57,10.10
2008,07,17,02,58,10.10
2008,07,17,02,59,10.10
2008,07,17,03,00,10.10
2008,07,17,03,01,10.10
2008,07,17,03,02,10.10
2008,07,17,03,03,10.10
2008,07,17,03,04,10.10
2008,07,17,03,05,10.10
2008,07,17,03,06,10.10
2008,07,17,03,07,10.10
2008,07,17,03,08,10.10
2008,07,17,03,09,10.10
2008,07,17,03,10,10.00
2008,07,17,03,11,10.00
2008,07,17,03,12,10.00
2008,07,17,03,13,10.00
2008,07,17,03,14,10.00
2008,07,17,03,15,10.00
2008,07,17,03,16,10.00
2008,07,17,03,17,10.00
2008,07,17,03,18,10.00
2008,07,17,03,19,10.00
2008,07,17,03,20,10.00
2008,07,17,03,21,10.00
2008,07,17,03,22,9.90
2008,07,17,03,23,10.00
2008,07,17,03,24,10.00
2008,07,17,03,25,10.00
2008,07,17,03,26,10.00
2008,07,17,03,27,10.00
2008,07,17,03,28,10.00
2008,07,17,03,29,10.00
2008,07,17,03,30,10.00
2008,07,17,03,31,10.00
2008,07,17,03,32,10.00
2008,07,17,03,33,10.00
2008,07,17,03,34,10.00
2008,07,17,03,35,10.00
2008,07,17,03,36,10.00
2008,07,17,03,37,10.00
2008,07,17,03,38,10.00
2008,07,17,03,39,10.00
2008,07,17,03,40,9.90
2008,07,17,03,41,9.90
2008,07,17,03,42,9.90
2008,07,17,03,43,9.90
2008,07,17,03,44,9.90
2008,07,17,03,45,9.90
2008,07,17,03,46,9.90
2008,07,17,03,47,9.90
2008,07,17,03,48,9.90
2008,07,17,03,49,9.90
2008,07,17,03,50,9.90
2008,07,17,03,51,9.90
2008,07,17,03,52,9.90
2008,07,17,03,53,9.90
2008,07,17,03,54,9.90
2008,07,17,03,55,9.90
2008,07,17,03,56,9.90
2008,07,17,03,57,9.90
2008,07,17,03,58,9.90
2008,07,17,03,59,9.90
2008,07,17,04,00,9.90
2008,07,17,04,01,9.90
2008,07,17,04,02,9.90
2008,07,17,04,03,9.90
2008,07,17,04,04,9.90
2008,07,17,04,05,9.90
2008,07,17,04,06,9.90
2008,07,17,04,07,9.90
2008,07,17,04,08,9.90
2008,07,17,04,09,9.90
2008,07,17,04,10,9.90
2008,07,17,04,11,9.90
2008,07,17,04,12,9.90
2008,07,17,04,13,9.90
2008,07,17,04,14,9.90
2008,07,17,04,15,9.90
2008,07,17,04,16,9.90
2008,07,17,04,17,9.90
2008,07,17,04,18,9.90
2008,07,17,04,19,9.90
2008,07,17,04,20,9.90
2008,07,17,04,21,9.90
2008,07,17,04,22,9.90
2008,07,17,04,23,9.90
2008,07,17,04,24,9.90
2008,07,17,04,25,9.90
2008,07,17,04,26,9.90
2008,07,17,04,27,9.90
2008,07,17,04,28,9.90
2008,07,17,04,29,9.80
2008,07,17,04,30,9.80
2008,07,17,04,31,9.80
2008,07,17,04,32,9.80
2008,07,17,04,33,9.80
2008,07,17,04,34,9.80
2008,07,17,04,35,9.80
2008,07,17,04,36,9.80
2008,07,17,04,37,9.80
2008,07,17,04,38,9.70
2008,07,17,04,39,9.70
2008,07,17,04,40,9.70
2008,07,17,04,41,9.70
2008,07,17,04,42,9.70
2008,07,17,04,43,9.70
2008,07,17,04,44,9.70
2008,07,17,04,45,9.70
2008,07,17,04,46,9.60
2008,07,17,04,47,9.60
2008,07,17,04,48,9.60
2008,07,17,04,49,9.60
2008,07,17,04,50,9.60
2008,07,17,04,51,9.60
2008,07,17,04,52,9.60
2008,07,17,04,53,9.60
2008,07,17,04,54,9.60
2008,07,17,04,55,9.60
2008,07,17,04,56,9.50
2008,07,17,04,57,9.50
2008,07,17,04,58,9.50
2008,07,17,04,59,9.50
2008,07,17,05,00,9.50
2008,07,17,05,01,9.40
2008,07,17,05,02,9.40
2008,07,17,05,03,9.40
2008,07,17,05,04,9.40
2008,07,17,05,05,9.40
2008,07,17,05,06,9.40
2008,07,17,05,07,9.40
2008,07,17,05,08,9.40
2008,07,17,05,09,9.40
2008,07,17,05,10,9.30
2008,07,17,05,11,9.30
2008,07,17,05,12,9.30
2008,07,17,05,13,9.30
2008,07,17,05,14,9.30
2008,07,17,05,15,9.30
2008,07,17,05,16,9.30
2008,07,17,05,17,9.30
2008,07,17,05,18,9.30
2008,07,17,05,19,9.30
2008,07,17,05,20,9.30
2008,07,17,05,21,9.30
2008,07,17,05,22,9.20
2008,07,17,05,23,9.20
2008,07,17,05,24,9.20
2008,07,17,05,25,9.20
2008,07,17,05,26,9.20
2008,07,17,05,27,9.20
2008,07,17,05,28,9.20
2008,07,17,05,29,9.20
2008,07,17,05,30,9.10
2008,07,17,05,31,9.10
2008,07,17,05,32,9.10
2008,07,17,05,33,9.10
2008,07,17,05,34,9.10
2008,07,17,05,35,9.10
2008,07,17,05,36,9.10
2008,07,17,05,37,9.10
2008,07,17,05,38,9.10
2008,07,17,05,39,9.00
2008,07,17,05,40,9.00
2008,07,17,05,41,9.00
2008,07,17,05,42,9.00
2008,07,17,05,43,9.00
2008,07,17,05,44,9.00
2008,07,17,05,45,9.00
2008,07,17,05,46,9.00
2008,07,17,05,47,9.00
2008,07,17,05,48,9.00
2008,07,17,05,49,9.00
2008,07,17,05,50,9.00
2008,07,17,05,51,9.00
2008,07,17,05,52,9.00
2008,07,17,05,53,9.00
2008,07,17,05,54,9.00
2008,07,17,05,55,9.10
2008,07,17,05,56,9.10
2008,07,17,05,57,9.10
2008,07,17,05,58,9.10
2008,07,17,05,59,9.10
2008,07,17,06,00,9.10
2008,07,17,06,01,9.10
2008,07,17,06,02,9.10
2008,07,17,06,03,9.10
2008,07,17,06,04,9.10
2008,07,17,06,05,9.20
2008,07,17,06,06,9.20
2008,07,17,06,07,9.20
2008,07,17,06,08,9.20
2008,07,17,06,09,9.20
2008,07,17,06,10,9.20
2008,07,17,06,11,9.20
2008,07,17,06,12,9.20
2008,07,17,06,13,9.20
2008,07,17,06,14,9.20
2008,07,17,06,15,9.20
2008,07,17,06,16,9.20
2008,07,17,06,17,9.30
2008,07,17,06,18,9.30
2008,07,17,06,19,9.30
2008,07,17,06,20,9.30
2008,07,17,06,21,9.30
2008,07,17,06,22,9.30
2008,07,17,06,23,9.30
2008,07,17,06,24,9.30
2008,07,17,06,25,9.30
2008,07,17,06,26,9.30
2008,07,17,06,27,9.30
2008,07,17,06,28,9.30
2008,07,17,06,29,9.40
2008,07,17,06,30,9.40
2008,07,17,06,31,9.40
2008,07,17,06,32,9.40
2008,07,17,06,33,9.40
2008,07,17,06,34,9.40
2008,07,17,06,35,9.40
2008,07,17,06,36,9.40
2008,07,17,06,37,9.40
2008,07,17,06,38,9.40
2008,07,17,06,39,9.40
2008,07,17,06,40,9.40
2008,07,17,06,41,9.40
2008,07,17,06,42,9.40
2008,07,17,06,43,9.40
2008,07,17,06,44,9.50
2008,07,17,06,45,9.50
2008,07,17,06,46,9.50
2008,07,17,06,47,9.50
2008,07,17,06,48,9.60
2008,07,17,06,49,9.60
2008,07,17,06,50,9.60
2008,07,17,06,51,9.60
2008,07,17,06,52,9.60
2008,07,17,06,53,9.70
2008,07,17,06,54,9.70
2008,07,17,06,55,9.70
2008,07,17,06,56,9.70
2008,07,17,06,57,9.70
2008,07,17,06,58,9.70
2008,07,17,06,59,9.80
2008,07,17,07,00,9.80
2008,07,17,07,01,9.80
2008,07,17,07,02,9.80
2008,07,17,07,03,9.80
2008,07,17,07,04,9.90
2008,07,17,07,05,9.90
2008,07,17,07,06,9.90
2008,07,17,07,07,10.00
2008,07,17,07,08,10.00
2008,07,17,07,09,10.10
2008,07,17,07,10,10.10
2008,07,17,07,11,10.20
2008,07,17,07,12,10.30
2008,07,17,07,13,10.30
2008,07,17,07,14,10.40
2008,07,17,07,15,10.50
2008,07,17,07,16,10.50
2008,07,17,07,17,10.60
2008,07,17,07,18,10.70
2008,07,17,07,19,10.80
2008,07,17,07,20,10.80
2008,07,17,07,21,10.90
2008,07,17,07,22,10.90
2008,07,17,07,23,11.00
2008,07,17,07,24,11.10
2008,07,17,07,25,11.10
2008,07,17,07,26,11.20
2008,07,17,07,27,11.20
2008,07,17,07,28,11.30
2008,07,17,07,29,11.40
2008,07,17,07,30,11.40
2008,07,17,07,31,11.50
2008,07,17,07,32,11.50
2008,07,17,07,33,11.60
2008,07,17,07,34,11.60
2008,07,17,07,35,11.70
2008,07,17,07,36,11.70
2008,07,17,07,37,11.80
2008,07,17,07,38,11.80
2008,07,17,07,39,11.90
2008,07,17,07,40,11.90
2008,07,17,07,41,12.00
2008,07,17,07,42,12.10
2008,07,17,07,43,12.20
2008,07,17,07,44,12.30
2008,07,17,07,45,12.40
2008,07,17,07,46,12.60
2008,07,17,07,47,12.70
2008,07,17,07,48,12.90
2008,07,17,07,49,13.10
2008,07,17,07,50,13.20
2008,07,17,07,51,13.40
2008,07,17,07,52,13.60
2008,07,17,07,53,13.80
2008,07,17,07,54,14.00
2008,07,17,07,55,14.10
2008,07,17,07,56,14.30
2008,07,17,07,57,14.40
2008,07,17,07,58,14.60
2008,07,17,07,59,14.70
2008,07,17,08,00,14.80
2008,07,17,08,01,14.90
2008,07,17,08,02,15.00
2008,07,17,08,03,15.00
2008,07,17,08,04,15.00
2008,07,17,08,05,15.20
2008,07,17,08,06,15.30
2008,07,17,08,07,15.40
2008,07,17,08,08,15.40
2008,07,17,08,09,15.50
2008,07,17,08,10,15.60
2008,07,17,08,11,15.70
2008,07,17,08,12,15.80
2008,07,17,08,13,15.90
2008,07,17,08,14,16.00
2008,07,17,08,15,16.10
2008,07,17,08,16,16.20
2008,07,17,08,17,16.40
2008,07,17,08,18,16.50
2008,07,17,08,19,16.70
2008,07,17,08,20,16.80
2008,07,17,08,21,17.00
2008,07,17,08,22,17.20
2008,07,17,08,23,17.30
2008,07,17,08,24,17.50
2008,07,17,08,25,17.60
2008,07,17,08,26,17.80
2008,07,17,08,27,17.90
2008,07,17,08,28,17.90
2008,07,17,08,29,18.00
2008,07,17,08,30,18.10
2008,07,17,08,31,18.10
2008,07,17,08,32,18.10
2008,07,17,08,33,18.10
2008,07,17,08,34,18.00
2008,07,17,08,35,18.00
2008,07,17,08,36,18.00
2008,07,17,08,37,17.90
2008,07,17,08,38,17.90
2008,07,17,08,39,17.80
2008,07,17,08,40,17.80
2008,07,17,08,41,17.80
2008,07,17,08,42,17.80
2008,07,17,08,43,17.80
2008,07,17,08,44,17.80
2008,07,17,08,45,17.80
2008,07,17,08,46,17.80
2008,07,17,08,47,17.80
2008,07,17,08,48,17.80
2008,07,17,08,49,17.80
2008,07,17,08,50,17.80
2008,07,17,08,51,17.80
2008,07,17,08,52,17.90
2008,07,17,08,53,18.00
2008,07,17,08,54,18.00
2008,07,17,08,55,18.10
2008,07,17,08,56,18.20
2008,07,17,08,57,18.20
2008,07,17,08,58,18.10
2008,07,17,08,59,18.10
2008,07,17,09,00,18.00
2008,07,17,09,01,18.10
2008,07,17,09,02,18.10
2008,07,17,09,03,18.20
2008,07,17,09,04,18.20
2008,07,17,09,05,18.20
2008,07,17,09,06,18.30
2008,07,17,09,07,18.30
2008,07,17,09,08,18.20
2008,07,17,09,09,18.20
2008,07,17,09,10,18.20
2008,07,17,09,11,18.20
2008,07,17,09,12,18.20
2008,07,17,09,13,18.20
2008,07,17,09,14,18.30
2008,07,17,09,15,18.30
2008,07,17,09,16,18.30
2008,07,17,09,17,18.40
2008,07,17,09,18,18.40
2008,07,17,09,19,18.40
2008,07,17,09,20,18.30
2008,07,17,09,21,18.30
2008,07,17,09,22,18.30
2008,07,17,09,23,18.30
2008,07,17,09,24,18.30
2008,07,17,09,25,18.30
2008,07,17,09,26,18.20
2008,07,17,09,27,18.20
2008,07,17,09,28,18.30
2008,07,17,09,29,18.30
2008,07,17,09,30,18.30
2008,07,17,09,31,18.40
2008,07,17,09,32,18.50
2008,07,17,09,33,18.60
2008,07,17,09,34,18.70
2008,07,17,09,35,18.70
2008,07,17,09,36,18.70
2008,07,17,09,37,18.70
2008,07,17,09,38,18.70
2008,07,17,09,39,18.70
2008,07,17,09,40,18.60
2008,07,17,09,41,18.50
2008,07,17,09,42,18.50
2008,07,17,09,43,18.40
2008,07,17,09,44,18.40
2008,07,17,09,45,18.40
2008,07,17,09,46,18.40
2008,07,17,09,47,18.40
2008,07,17,09,48,18.40
2008,07,17,09,49,18.30
2008,07,17,09,50,18.30
2008,07,17,09,51,18.20
2008,07,17,09,52,18.20
2008,07,17,09,53,18.20
2008,07,17,09,54,18.20
2008,07,17,09,55,18.20
2008,07,17,09,56,18.20
2008,07,17,09,57,18.30
2008,07,17,09,58,18.30
2008,07,17,09,59,18.40
2008,07,17,10,00,18.50
2008,07,17,10,01,18.50
2008,07,17,10,02,18.60
2008,07,17,10,03,18.70
2008,07,17,10,04,18.70
2008,07,17,10,05,18.80
2008,07,17,10,06,18.80
2008,07,17,10,07,18.80
2008,07,17,10,08,18.80
2008,07,17,10,09,18.80
2008,07,17,10,10,18.80
2008,07,17,10,11,18.80
2008,07,17,10,12,18.80
2008,07,17,10,13,18.80
2008,07,17,10,14,18.70
2008,07,17,10,15,18.70
2008,07,17,10,16,18.70
2008,07,17,10,17,18.70
2008,07,17,10,18,18.70
2008,07,17,10,19,18.70
2008,07,17,10,20,18.70
2008,07,17,10,21,18.70
2008,07,17,10,22,18.70
2008,07,17,10,23,18.70
2008,07,17,10,24,18.70
2008,07,17,10,25,18.80
2008,07,17,10,26,18.80
2008,07,17,10,27,18.80
2008,07,17,10,28,18.80
2008,07,17,10,29,18.80
2008,07,17,10,30,18.70
2008,07,17,10,31,18.70
2008,07,17,10,32,18.70
2008,07,17,10,33,18.80
2008,07,17,10,34,18.80
2008,07,17,10,35,18.90
2008,07,17,10,36,19.00
2008,07,17,10,37,19.00
2008,07,17,10,38,19.10
2008,07,17,10,39,19.20
2008,07,17,10,40,19.20
2008,07,17,10,41,19.20
2008,07,17,10,42,19.20
2008,07,17,10,43,19.20
2008,07,17,10,44,19.20
2008,07,17,10,45,19.10
2008,07,17,10,46,19.10
2008,07,17,10,47,19.00
2008,07,17,10,48,19.00
2008,07,17,10,49,18.90
2008,07,17,10,50,18.90
2008,07,17,10,51,18.90
2008,07,17,10,52,18.90
2008,07,17,10,53,18.90
2008,07,17,10,54,18.90
2008,07,17,10,55,18.90
2008,07,17,10,56,19.00
2008,07,17,10,57,19.00
2008,07,17,10,58,19.00
2008,07,17,10,59,19.00
2008,07,17,11,00,19.00
2008,07,17,11,01,19.10
2008,07,17,11,02,19.10
2008,07,17,11,03,19.10
2008,07,17,11,04,19.10
2008,07,17,11,05,19.00
2008,07,17,11,06,19.00
2008,07,17,11,07,19.00
2008,07,17,11,08,19.00
2008,07,17,11,09,19.10
2008,07,17,11,10,19.10
2008,07,17,11,11,19.10
2008,07,17,11,12,19.10
2008,07,17,11,13,19.10
2008,07,17,11,14,19.10
2008,07,17,11,15,19.10
2008,07,17,11,16,19.10
2008,07,17,11,17,19.10
2008,07,17,11,18,19.10
2008,07,17,11,19,19.10
2008,07,17,11,20,19.00
2008,07,17,11,21,19.00
2008,07,17,11,22,19.00
2008,07,17,11,23,19.00
2008,07,17,11,24,19.10
2008,07,17,11,25,19.10
2008,07,17,11,26,19.10
2008,07,17,11,27,19.10
2008,07,17,11,28,19.10
2008,07,17,11,29,19.10
2008,07,17,11,30,19.20
2008,07,17,11,31,19.30
2008,07,17,11,32,19.30
2008,07,17,11,33,19.30
2008,07,17,11,34,19.30
2008,07,17,11,35,19.40
2008,07,17,11,36,19.40
2008,07,17,11,37,19.40
2008,07,17,11,38,19.40
2008,07,17,11,39,19.40
2008,07,17,11,40,19.30
2008,07,17,11,41,19.30
2008,07,17,11,42,19.30
2008,07,17,11,43,19.30
2008,07,17,11,44,19.40
2008,07,17,11,45,19.40
2008,07,17,11,46,19.50
2008,07,17,11,47,19.60
2008,07,17,11,48,19.70
2008,07,17,11,49,19.80
2008,07,17,11,50,19.90
2008,07,17,11,51,20.00
2008,07,17,11,52,20.00
2008,07,17,11,53,20.10
2008,07,17,11,54,20.10
2008,07,17,11,55,20.10
2008,07,17,11,56,20.20
2008,07,17,11,57,20.20
2008,07,17,11,58,20.20
2008,07,17,11,59,20.20
2008,07,17,12,00,20.20
2008,07,17,12,01,20.20
2008,07,17,12,02,20.30
2008,07,17,12,03,20.40
2008,07,17,12,04,20.40
2008,07,17,12,05,20.40
2008,07,17,12,06,20.50
2008,07,17,12,07,20.50
2008,07,17,12,08,20.60
2008,07,17,12,09,20.60
2008,07,17,12,10,20.70
2008,07,17,12,11,20.70
2008,07,17,12,12,20.60
2008,07,17,12,13,20.60
2008,07,17,12,14,20.60
2008,07,17,12,15,20.60
2008,07,17,12,16,20.70
2008,07,17,12,17,20.70
2008,07,17,12,18,20.70
2008,07,17,12,19,20.80
2008,07,17,12,20,20.90
2008,07,17,12,21,20.90
2008,07,17,12,22,20.90
2008,07,17,12,23,20.90
2008,07,17,12,24,20.90
2008,07,17,12,25,20.90
2008,07,17,12,26,21.00
2008,07,17,12,27,21.00
2008,07,17,12,28,20.90
2008,07,17,12,29,20.90
2008,07,17,12,30,20.90
2008,07,17,12,31,20.90
2008,07,17,12,32,20.80
2008,07,17,12,33,20.80
2008,07,17,12,34,20.70
2008,07,17,12,35,20.70
2008,07,17,12,36,20.60
2008,07,17,12,37,20.60
2008,07,17,12,38,20.50
2008,07,17,12,39,20.50
2008,07,17,12,40,20.50
2008,07,17,12,41,20.60
2008,07,17,12,42,20.80
2008,07,17,12,43,20.90
2008,07,17,12,44,21.10
2008,07,17,12,45,21.10
2008,07,17,12,46,21.20
2008,07,17,12,47,21.20
2008,07,17,12,48,21.30
2008,07,17,12,49,21.30
2008,07,17,12,50,21.20
2008,07,17,12,51,21.10
2008,07,17,12,52,21.10
2008,07,17,12,53,21.00
2008,07,17,12,54,20.90
2008,07,17,12,55,20.70
2008,07,17,12,56,20.70
2008,07,17,12,57,20.70
2008,07,17,12,58,20.70
2008,07,17,12,59,20.80
2008,07,17,13,00,20.90
2008,07,17,13,01,21.00
2008,07,17,13,02,21.10
2008,07,17,13,03,21.20
2008,07,17,13,04,21.30
2008,07,17,13,05,21.30
2008,07,17,13,06,21.40
2008,07,17,13,07,21.50
2008,07,17,13,08,21.60
2008,07,17,13,09,21.70
2008,07,17,13,10,21.60
2008,07,17,13,11,21.50
2008,07,17,13,12,21.30
2008,07,17,13,13,21.20
2008,07,17,13,14,21.00
2008,07,17,13,15,20.90
2008,07,17,13,16,20.80
2008,07,17,13,17,20.70
2008,07,17,13,18,20.70
2008,07,17,13,19,20.70
2008,07,17,13,20,20.70
2008,07,17,13,21,20.70
2008,07,17,13,22,20.70
2008,07,17,13,23,20.70
2008,07,17,13,24,20.70
2008,07,17,13,25,20.70
2008,07,17,13,26,20.70
2008,07,17,13,27,20.80
2008,07,17,13,28,20.80
2008,07,17,13,29,20.90
2008,07,17,13,30,20.90
2008,07,17,13,31,21.00
2008,07,17,13,32,21.10
2008,07,17,13,33,21.20
2008,07,17,13,34,21.20
2008,07,17,13,35,21.30
2008,07,17,13,36,21.30
2008,07,17,13,37,21.20
2008,07,17,13,38,21.10
2008,07,17,13,39,21.10
2008,07,17,13,40,21.20
2008,07,17,13,41,21.20
2008,07,17,13,42,21.20
2008,07,17,13,43,21.20
2008,07,17,13,44,21.30
2008,07,17,13,45,21.30
2008,07,17,13,46,21.30
2008,07,17,13,47,21.40
2008,07,17,13,48,21.40
2008,07,17,13,49,21.30
2008,07,17,13,50,21.20
2008,07,17,13,51,21.20
2008,07,17,13,52,21.20
2008,07,17,13,53,21.30
2008,07,17,13,54,21.30
2008,07,17,13,55,21.40
2008,07,17,13,56,21.50
2008,07,17,13,57,21.60
2008,07,17,13,58,21.60
2008,07,17,13,59,21.70
2008,07,17,14,00,21.80
2008,07,17,14,01,21.80
2008,07,17,14,02,21.80
2008,07,17,14,03,21.80
2008,07,17,14,04,21.80
2008,07,17,14,05,21.80
2008,07,17,14,06,21.80
2008,07,17,14,07,21.80
2008,07,17,14,08,21.80
2008,07,17,14,09,21.80
2008,07,17,14,10,21.90
2008,07,17,14,11,21.80
2008,07,17,14,12,21.80
2008,07,17,14,13,21.80
2008,07,17,14,14,21.80
2008,07,17,14,15,21.80
2008,07,17,14,16,21.80
2008,07,17,14,17,21.80
2008,07,17,14,18,21.80
2008,07,17,14,19,21.80
2008,07,17,14,20,21.80
2008,07,17,14,21,21.80
2008,07,17,14,22,21.90
2008,07,17,14,23,21.80
2008,07,17,14,24,21.80
2008,07,17,14,25,21.70
2008,07,17,14,26,21.60
2008,07,17,14,27,21.50
2008,07,17,14,28,21.20
2008,07,17,14,29,20.90
2008,07,17,14,30,20.60
2008,07,17,14,31,20.50
2008,07,17,14,32,20.50
2008,07,17,14,33,20.50
2008,07,17,14,34,20.60
2008,07,17,14,35,20.60
2008,07,17,14,36,20.60
2008,07,17,14,37,20.70
2008,07,17,14,38,20.60
2008,07,17,14,39,20.70
2008,07,17,14,40,20.70
2008,07,17,14,41,20.80
2008,07,17,14,42,20.80
2008,07,17,14,43,20.90
2008,07,17,14,44,20.90
2008,07,17,14,45,20.80
2008,07,17,14,46,20.80
2008,07,17,14,47,20.70
2008,07,17,14,48,20.50
2008,07,17,14,49,20.40
2008,07,17,14,50,20.40
2008,07,17,14,51,20.30
2008,07,17,14,52,20.30
2008,07,17,14,53,20.30
2008,07,17,14,54,20.30
2008,07,17,14,55,20.30
2008,07,17,14,56,20.30
2008,07,17,14,57,20.20
2008,07,17,14,58,20.20
2008,07,17,14,59,20.20
2008,07,17,15,00,20.20
2008,07,17,15,01,20.10
2008,07,17,15,02,20.10
2008,07,17,15,03,20.10
2008,07,17,15,04,20.00
2008,07,17,15,05,20.00
2008,07,17,15,06,20.00
2008,07,17,15,07,20.00
2008,07,17,15,08,20.00
2008,07,17,15,09,20.00
2008,07,17,15,10,20.00
2008,07,17,15,11,20.00
2008,07,17,15,12,20.10
2008,07,17,15,13,20.20
2008,07,17,15,14,20.30
2008,07,17,15,15,20.50
2008,07,17,15,16,20.60
2008,07,17,15,17,20.70
2008,07,17,15,18,20.70
2008,07,17,15,19,20.70
2008,07,17,15,20,20.80
2008,07,17,15,21,20.80
2008,07,17,15,22,20.80
2008,07,17,15,23,20.80
2008,07,17,15,24,20.70
2008,07,17,15,25,20.60
2008,07,17,15,26,20.60
2008,07,17,15,27,20.60
2008,07,17,15,28,20.60
2008,07,17,15,29,20.60
2008,07,17,15,30,20.60
2008,07,17,15,31,20.60
2008,07,17,15,32,20.60
2008,07,17,15,33,20.70
2008,07,17,15,34,20.70
2008,07,17,15,35,20.70
2008,07,17,15,36,20.70
2008,07,17,15,37,20.70
2008,07,17,15,38,20.70
2008,07,17,15,39,20.70
2008,07,17,15,40,20.70
2008,07,17,15,41,20.60
2008,07,17,15,42,20.70
2008,07,17,15,43,20.70
2008,07,17,15,44,20.70
2008,07,17,15,45,20.80
2008,07,17,15,46,20.80
2008,07,17,15,47,20.70
2008,07,17,15,48,20.70
2008,07,17,15,49,20.60
2008,07,17,15,50,20.60
2008,07,17,15,51,20.60
2008,07,17,15,52,20.60
2008,07,17,15,53,20.60
2008,07,17,15,54,20.70
2008,07,17,15,55,20.80
2008,07,17,15,56,20.90
2008,07,17,15,57,21.00
2008,07,17,15,58,21.10
2008,07,17,15,59,21.20
2008,07,17,16,00,21.20
2008,07,17,16,01,21.30
2008,07,17,16,02,21.30
2008,07,17,16,03,21.30
2008,07,17,16,04,21.20
2008,07,17,16,05,21.20
2008,07,17,16,06,21.20
2008,07,17,16,07,21.30
2008,07,17,16,08,21.30
2008,07,17,16,09,21.30
2008,07,17,16,10,21.40
2008,07,17,16,11,21.40
2008,07,17,16,12,21.40
2008,07,17,16,13,21.40
2008,07,17,16,14,21.40
2008,07,17,16,15,21.40
2008,07,17,16,16,21.40
2008,07,17,16,17,21.40
2008,07,17,16,18,21.30
2008,07,17,16,19,21.20
2008,07,17,16,20,21.20
2008,07,17,16,21,21.10
2008,07,17,16,22,21.10
2008,07,17,16,23,21.10
2008,07,17,16,24,21.20
2008,07,17,16,25,21.20
2008,07,17,16,26,21.30
2008,07,17,16,27,21.30
2008,07,17,16,28,21.30
2008,07,17,16,29,21.30
2008,07,17,16,30,21.40
2008,07,17,16,31,21.40
2008,07,17,16,32,21.40
2008,07,17,16,33,21.40
2008,07,17,16,34,21.40
2008,07,17,16,35,21.40
2008,07,17,16,36,21.40
2008,07,17,16,37,21.40
2008,07,17,16,38,21.30
2008,07,17,16,39,21.30
2008,07,17,16,40,21.30
2008,07,17,16,41,21.20
2008,07,17,16,42,21.20
2008,07,17,16,43,21.20
2008,07,17,16,44,21.20
2008,07,17,16,45,21.20
2008,07,17,16,46,21.20
2008,07,17,16,47,21.20
2008,07,17,16,48,21.20
2008,07,17,16,49,21.20
2008,07,17,16,50,21.20
2008,07,17,16,51,21.20
2008,07,17,16,52,21.20
2008,07,17,16,53,21.20
2008,07,17,16,54,21.20
2008,07,17,16,55,21.20
2008,07,17,16,56,21.20
2008,07,17,16,57,21.20
2008,07,17,16,58,21.20
2008,07,17,16,59,21.20
2008,07,17,17,00,21.20
2008,07,17,17,01,21.20
2008,07,17,17,02,21.20
2008,07,17,17,03,21.20
2008,07,17,17,04,21.20
2008,07,17,17,05,21.10
2008,07,17,17,06,21.10
2008,07,17,17,07,21.10
2008,07,17,17,08,21.10
2008,07,17,17,09,21.10
2008,07,17,17,10,21.00
2008,07,17,17,11,21.00
2008,07,17,17,12,21.00
2008,07,17,17,13,21.00
2008,07,17,17,14,21.00
2008,07,17,17,15,21.00
2008,07,17,17,16,21.00
2008,07,17,17,17,21.00
2008,07,17,17,18,21.10
2008,07,17,17,19,21.00
2008,07,17,17,20,21.00
2008,07,17,17,21,21.00
2008,07,17,17,22,21.00
2008,07,17,17,23,21.00
2008,07,17,17,24,21.00
2008,07,17,17,25,20.90
2008,07,17,17,26,20.90
2008,07,17,17,27,20.80
2008,07,17,17,28,20.80